Troy, MI

5:53 PM EDT on April 25, 2017 (GMT -0400)
Troy

Weather History for KVLL - September, 2013

Change the Weather History Date:

Saturday, September 7, 2013

  Actual Average (KDET) Record (KDET)
Temperature  
Mean Temperature 70 °F -  
Max Temperature 81 °F 77 °F 92 °F (1985)
Min Temperature 60 °F 59 °F 46 °F (1962)
Cooling Degree Days 6    
Growing Degree Days 20 (Base 50)    
Moisture  
Dew Point 59 °F    
Average Humidity 67    
Maximum Humidity 79    
Minimum Humidity 49    
Precipitation  
Precipitation 0.00 in - - ()
Sea Level Pressure  
Sea Level Pressure 30.01 in    
Wind  
Wind Speed 4 mph (WSW)    
Max Wind Speed 12 mph    
Max Gust Speed 20 mph    
Visibility 10 miles    
Events Rain    
Averages and records for this station are not official NWS values.
T = Trace of Precipitation, MM = Missing Value Source: NWS Daily Summary

Daily Weather History Graph

Daily Weather History Graph

Search for Another Location

Airport or City:

Trip Planner

Search our weather history database for the weather conditions in past years. The results will help you decide how hot, cold, wet, or windy it might be!

Date:

Astronomy

Sep. 07, 2013 Rise Set
Actual Time 7:04 AM EDT 7:56 PM EDT
Civil Twilight 6:35 AM EDT 8:24 PM EDT
Nautical Twilight 6:01 AM EDT 8:58 PM EDT
Astronomical Twilight 5:26 AM EDT 9:33 PM EDT
Moon 9:21 AM EDT (9/7) 8:49 PM EDT (9/7)
Length of Visible Light 13h 49m
Length of Day
12h 51m
Waxing Crescent, 5% of the Moon is Illuminated
Sep 7
Waxing Crescent
Sep 12
First Quarter
Sep 19
Full
Sep 26
Last Quarter
Oct 4
New

Hourly Weather History & Observations

Time (EDT) Temp. Heat Index Dew Point Humidity Pressure Visibility Wind Dir Wind Speed Gust Speed Precip Events Conditions
12:15 AM 63.5 °F - 50.4 °F 62% 30.10 in 10.0 mi Calm Calm - N/A   Clear
12:34 AM 63.0 °F - 50.5 °F 64% 30.10 in 10.0 mi SW 3.5 mph - N/A   Clear
12:55 AM 62.6 °F - 50.2 °F 64% 30.10 in 10.0 mi Calm Calm - N/A   Clear
1:15 AM 62.1 °F - 50.9 °F 67% 30.10 in 10.0 mi Calm Calm - N/A   Clear
1:34 AM 62.1 °F - 51.1 °F 67% 30.10 in 10.0 mi Calm Calm - N/A   Clear
1:55 AM 61.7 °F - 51.6 °F 69% 30.10 in 10.0 mi SSW 4.6 mph - N/A   Clear
2:15 AM 61.5 °F - 52.2 °F 71% 30.10 in 10.0 mi WSW 3.5 mph - N/A   Clear
2:34 AM 61.7 °F - 52.9 °F 73% 30.10 in 10.0 mi WSW 4.6 mph - N/A   Clear
2:55 AM 61.7 °F - 53.6 °F 75% 30.09 in 10.0 mi SW 4.6 mph - N/A   Clear
3:15 AM 61.3 °F - 53.6 °F 76% 30.09 in 10.0 mi SW 5.8 mph - N/A   Clear
3:34 AM 61.3 °F - 53.6 °F 76% 30.09 in 10.0 mi WSW 5.8 mph - N/A   Clear
3:55 AM 61.5 °F - 53.6 °F 75% 30.08 in 10.0 mi SW 5.8 mph - N/A   Clear
4:15 AM 61.9 °F - 53.4 °F 74% 30.07 in 10.0 mi SW 3.5 mph - N/A   Clear
4:34 AM 61.5 °F - 52.9 °F 73% 30.07 in 10.0 mi SW 4.6 mph - N/A   Clear
4:55 AM 61.2 °F - 52.7 °F 74% 30.07 in 10.0 mi SW 5.8 mph - N/A   Clear
5:14 AM 61.2 °F - 52.7 °F 74% 30.06 in 10.0 mi SSW 5.8 mph - N/A   Clear
5:35 AM 60.8 °F - 52.3 °F 74% 30.06 in 10.0 mi SSW 4.6 mph - N/A   Clear
5:54 AM 60.8 °F - 51.8 °F 72% 30.05 in 10.0 mi SW 4.6 mph - N/A   Clear
6:14 AM 61.2 °F - 50.0 °F 67% 30.06 in 10.0 mi SW 5.8 mph - N/A   Clear
6:35 AM 61.3 °F - 49.5 °F 65% 30.05 in 10.0 mi SW 6.9 mph - N/A   Mostly Cloudy
6:54 AM 61.2 °F - 49.1 °F 65% 30.05 in 10.0 mi SW 5.8 mph - N/A   Scattered Clouds
7:15 AM 61.2 °F - 48.9 °F 64% 30.05 in 10.0 mi SW 6.9 mph - N/A   Scattered Clouds
7:35 AM 61.3 °F - 48.4 °F 62% 30.05 in 10.0 mi SW 5.8 mph - N/A   Scattered Clouds
7:54 AM 62.1 °F - 48.4 °F 61% 30.05 in 10.0 mi WSW 5.8 mph - N/A   Clear
8:15 AM 62.6 °F - 48.6 °F 60% 30.05 in 10.0 mi SW 5.8 mph - N/A   Clear
8:35 AM 63.0 °F - 49.1 °F 61% 30.04 in 10.0 mi SW 4.6 mph - N/A   Scattered Clouds
8:54 AM 64.2 °F - 49.5 °F 59% 30.04 in 10.0 mi SW 5.8 mph - N/A   Scattered Clouds
9:15 AM 65.8 °F - 50.0 °F 57% 30.03 in 10.0 mi SW 5.8 mph - N/A   Clear
9:34 AM 67.5 °F - 50.7 °F 55% 30.03 in 10.0 mi SW 6.9 mph - N/A   Clear
9:55 AM 68.9 °F - 51.8 °F 54% 30.02 in 10.0 mi SW 4.6 mph - N/A   Clear
10:15 AM 71.4 °F - 53.8 °F 54% 30.02 in 10.0 mi SW 4.6 mph - N/A   Clear
10:34 AM 72.5 °F - 54.9 °F 54% 30.02 in 10.0 mi WSW 6.9 mph - N/A   Clear
10:55 AM 74.1 °F - 56.3 °F 54% 30.01 in 10.0 mi SW 6.9 mph - N/A   Clear
11:15 AM 77.5 °F - 58.1 °F 51% 30.01 in 10.0 mi WSW 9.2 mph - N/A   Scattered Clouds
11:34 AM 79.3 °F - 59.5 °F 51% 30.02 in 10.0 mi West 5.8 mph - N/A   Mostly Cloudy
11:55 AM 79.2 °F - 60.3 °F 52% 30.02 in 10.0 mi West 6.9 mph 19.6 mph N/A   Scattered Clouds
12:14 PM 80.2 °F 81.1 °F 60.8 °F 51% 30.02 in 10.0 mi West 9.2 mph - N/A   Clear
12:35 PM 81.7 °F 82.3 °F 60.8 °F 49% 30.01 in 10.0 mi West 11.5 mph - N/A   Scattered Clouds
12:55 PM 81.5 °F 82.2 °F 61.0 °F 50% 30.00 in 10.0 mi West 6.9 mph - N/A   Scattered Clouds
1:14 PM 80.8 °F 81.5 °F 60.8 °F 50% 30.00 in 10.0 mi WSW 10.4 mph - N/A   Mostly Cloudy
1:33 PM 80.2 °F 81.2 °F 61.0 °F 52% 30.00 in 10.0 mi West 8.1 mph - N/A   Overcast
1:55 PM 78.1 °F - 63.5 °F 61% 29.99 in 7.0 mi WSW 10.4 mph - N/A Rain Light Rain
2:15 PM 76.6 °F - 65.7 °F 69% 29.99 in 10.0 mi West 3.5 mph - N/A Rain Light Rain
2:34 PM 75.6 °F - 67.6 °F 76% 29.99 in 7.0 mi Calm Calm - N/A Rain Light Rain
2:55 PM 75.2 °F - 68.2 °F 79% 29.97 in 10.0 mi SSW 4.6 mph - N/A Rain Light Rain
3:15 PM 76.5 °F - 68.2 °F 75% 29.97 in 10.0 mi West 4.6 mph - N/A   Scattered Clouds
3:34 PM 77.0 °F - 68.2 °F 74% 29.97 in 10.0 mi Calm Calm - N/A   Mostly Cloudy
3:55 PM 76.3 °F - 67.6 °F 74% 29.97 in 10.0 mi West 3.5 mph - N/A   Overcast
4:15 PM 76.5 °F - 68.2 °F 75% 29.96 in 10.0 mi West 3.5 mph - N/A   Overcast
4:34 PM 76.1 °F - 68.0 °F 76% 29.95 in 10.0 mi SW 4.6 mph - N/A Rain Light Rain
4:55 PM 76.1 °F - 68.7 °F 78% 29.95 in 10.0 mi SW 3.5 mph - N/A   Mostly Cloudy
5:15 PM 78.1 °F - 68.5 °F 72% 29.95 in 10.0 mi SW 8.1 mph - N/A   Scattered Clouds
5:34 PM 78.3 °F - 66.4 °F 67% 29.95 in 10.0 mi SW 10.4 mph 16.1 mph N/A   Mostly Cloudy
5:55 PM 78.1 °F - 64.4 °F 63% 29.95 in 10.0 mi WSW 6.9 mph - N/A   Overcast
6:14 PM 77.4 °F - 64.4 °F 64% 29.95 in 10.0 mi SW 5.8 mph - N/A   Overcast
6:35 PM 77.0 °F - 64.4 °F 65% 29.95 in 10.0 mi SW 6.9 mph - N/A Rain Light Rain
6:55 PM 76.3 °F - 63.9 °F 65% 29.94 in 10.0 mi SW 5.8 mph - N/A   Clear
7:14 PM 76.1 °F - 63.9 °F 66% 29.93 in 10.0 mi SW 3.5 mph - N/A   Clear
7:35 PM 76.1 °F - 63.7 °F 65% 29.93 in 10.0 mi Calm Calm - N/A   Clear
7:54 PM 75.4 °F - 63.7 °F 67% 29.93 in 10.0 mi SW 3.5 mph - N/A   Clear
8:14 PM 74.8 °F - 63.9 °F 69% 29.93 in 10.0 mi Calm Calm - N/A   Clear
8:35 PM 74.5 °F - 64.0 °F 70% 29.93 in 10.0 mi SW 4.6 mph - N/A   Mostly Cloudy
8:55 PM 73.9 °F - 64.4 °F 72% 29.94 in 10.0 mi WSW 3.5 mph - N/A   Scattered Clouds
9:14 PM 73.4 °F - 64.4 °F 73% 29.94 in 10.0 mi SW 3.5 mph - N/A   Clear
9:35 PM 73.0 °F - 64.6 °F 75% 29.94 in 10.0 mi SW 4.6 mph - N/A   Mostly Cloudy
9:55 PM 73.0 °F - 64.8 °F 75% 29.95 in 10.0 mi WSW 3.5 mph - N/A   Mostly Cloudy
10:14 PM 73.4 °F - 65.3 °F 76% 29.95 in 10.0 mi WSW 3.5 mph - N/A   Overcast
10:35 PM 73.0 °F - 65.3 °F 77% 29.95 in 10.0 mi WSW 3.5 mph - N/A   Mostly Cloudy
10:55 PM 73.4 °F - 65.5 °F 76% 29.95 in 10.0 mi West 3.5 mph - N/A   Mostly Cloudy
11:14 PM 73.4 °F - 65.5 °F 76% 29.95 in 10.0 mi West 6.9 mph - N/A   Overcast
11:35 PM 74.7 °F - 65.3 °F 73% 29.95 in 10.0 mi West 9.2 mph - N/A   Overcast
11:55 PM 74.8 °F - 65.3 °F 72% 29.95 in 10.0 mi West 6.9 mph - N/A   Overcast